Вернуться в каталог

COSMOS 2251 DEB

АктивенLEO
NORAD 35453·DEBRIS·🇷🇺 Russia

Запущен Jun 16, 1993 с Plesetsk Cosmodrome

Loading…

Ближайшие Пролёты (ближайшие 24 часа)

TLE

УстаревающийSource: Space-Track

Эпоха: Sep 12, 2026, 06:38 UTC

1 35453U 93036AKX 26255.27686986  .00001119  00000-0  36146-3 0  9998
2 35453  74.0058 235.2360 0069681 301.3878  58.0472 14.38963708901529

Отслеживайте COSMOS 2251 DEB в реальном времени с AllMySat

Download on the App Store